Regional Weather Roundup
Issued by NWS

Home | Current Version | Previous Version | Graphics & Text | Print | Product List | Glossary On
Versions: 1 2 3 4 5 6 7 8 9 10 11 12 13 14 15 16 17 18 19 20 21 22 23 24 25 26 27 28 29 30 31 32 33 34 35 36 37 38 39 40 41 42 43 44 45 46 47 48 49 50
000
ASUS43 KOAX 160402
RWRNE

WEATHER ROUNDUP FOR NEBRASKA
NATIONAL WEATHER SERVICE OMAHA NE
1100 PM CDT MON SEP 15 2014

NOTES: SATELLITE DATA IS BEING USED TO AUGMENT CLOUD COVER ABOVE
       12000 FEET.
       "FAIR" INDICATES FEW OR NO CLOUDS BELOW 12,000 FEET WITH NO
       SIGNIFICANT WEATHER AND/OR OBSTRUCTIONS TO VISIBILITY.

  * THESE STATIONS DO NOT REPORT WEATHER SUCH AS RAIN...SNOW OR FOG.

NEZ001>004-019>022-054>056-160500-
NEBRASKA PANHANDLE

CITY           SKY/WX    TMP DP  RH WIND       PRES   REMARKS
SCOTTSBLUFF    PTCLDY    55  47  74 E10       30.17S
ALLIANCE       CLEAR     50  44  80 S10       30.19F
CHADRON        CLEAR     59  45  59 SW7       30.12F
KIMBALL        CLEAR     55  50  82 S10       30.21F
SIDNEY         CLEAR     54  46  74 S12       30.23F
$$

NEZ057>060-069>072-079>082-160500-
SOUTHWEST NEBRASKA

CITY           SKY/WX    TMP DP  RH WIND       PRES   REMARKS
NORTH PLATTE   CLEAR     46  42  86 E6        30.25R
IMPERIAL       CLEAR     50  44  80 SE8       30.25S
LEXINGTON      CLEAR     48  45  88 S5        30.27R
MCCOOK         CLEAR     52  43  71 SE6       30.27R
OGALLALA       CLEAR     54  47  79 S6        30.23S
$$

NEZ005>010-023>029-035>040-094-160500-
NORTH CENTRAL NEBRASKA

CITY           SKY/WX    TMP DP  RH WIND       PRES   REMARKS
VALENTINE      CLEAR     51  39  63 S7        30.20F
AINSWORTH      CLEAR     45  38  79 S7        30.22S
BROKEN BOW     CLEAR     42  40  92 CALM      30.25S
O`NEILL        CLEAR     49  42  75 SE5       30.25S
ORD            CLEAR     44  41  89 CALM      30.25S
THEDFORD       CLEAR     52  42  68 S10       30.23F
$$

NEZ041-046>049-061>064-073>077-083>087-160500-
SOUTH CENTRAL NEBRASKA

CITY           SKY/WX    TMP DP  RH WIND       PRES   REMARKS
GRAND ISLAND   CLEAR     48  43  82 E6        30.27S
AURORA         CLEAR     47  44  88 E5        30.27S
HASTINGS       CLEAR     50  43  77 E5        30.26F
HEBRON         CLEAR     46  43  90 CALM      30.27S
HOLDREGE       CLEAR     46  43  86 CALM      30.27R
KEARNEY *      CLEAR     48  43  81 SE3       30.27S
YORK           LGT RAIN  48  45  87 SE3       30.28R
$$

NEZ011>018-030>034-042>045-160500-
NORTHEAST NEBRASKA

CITY           SKY/WX    TMP DP  RH WIND       PRES   REMARKS
NORFOLK        CLEAR     44  41  89 CALM      30.26S
ALBION         CLEAR     43  40  89 CALM      30.27S
BLAIR          CLEAR     51  45  78 CALM      30.26R
COLUMBUS *     CLEAR     45  41  87 CALM      30.28S
FREMONT        CLEAR     49  47  90 CALM      30.27S
TEKAMAH        CLEAR     47  44  90 CALM      30.26S
WAYNE          CLEAR     43  41  95 CALM      30.27R
$$

NEZ050>053-065>068-078-088>093-160500-
SOUTHEAST NEBRASKA

CITY           SKY/WX    TMP DP  RH WIND       PRES   REMARKS
LINCOLN        CLEAR     51  44  77 NW3       30.28R
OMAHA EPPLEY   CLEAR     50  46  86 CALM      30.27S
BEATRICE       CLEAR     47  44  90 CALM      30.27S
FALLS CITY     CLEAR     51  46  83 N3        30.26R
NEBRASKA CITY  CLEAR     51  41  67 CALM      30.27R
PLATTSMOUTH    CLEAR     50  44  81 CALM      30.26S
$$

NEZ044-045-051>053-067-160500-
OMAHA AREA

CITY           SKY/WX    TMP DP  RH WIND       PRES   REMARKS
OMAHA EPPLEY   CLEAR     50  46  86 CALM      30.27S
BLAIR          CLEAR     51  45  78 CALM      30.26R
FREMONT        CLEAR     49  47  90 CALM      30.27S
MILLARD        CLEAR     49  47  93 CALM      30.26S
OFFUTT AFB     CLEAR     46  46 100 W2        30.26S
PLATTSMOUTH    CLEAR     50  44  81 CALM      30.26S
WAHOO          FAIR      46  43  90 CALM      30.27S
$$



USA.gov is the U.S. government's official web portal to all federal, state and local government web resources and services.